Nashua, NH

6:55 AM EDT on May 24, 2017 (GMT -0400)
Boire

Weather History for KASH - October, 2013

Change the Weather History Date:

Saturday, October 26, 2013

  Actual Average Record
Temperature  
Mean Temperature 41 °F -  
Max Temperature 54 °F 58 °F 82 °F (1963)
Min Temperature 28 °F 35 °F 17 °F (1952)
Degree Days  
Heating Degree Days 24    
Moisture  
Dew Point 27 °F    
Average Humidity 58    
Maximum Humidity 92    
Minimum Humidity 31    
Precipitation  
Precipitation 0.00 in - - ()
Sea Level Pressure  
Sea Level Pressure 30.78 in    
Wind  
Wind Speed 3 mph (WSW)    
Max Wind Speed 9 mph    
Max Gust Speed 20 mph    
Visibility 10 miles    
Events      
Averages and records for this station are not official NWS values.
T = Trace of Precipitation, MM = Missing Value Source: NWS Daily Summary

Daily Weather History Graph

Daily Weather History Graph

Search for Another Location

Airport or City:

Trip Planner

Search our weather history database for the weather conditions in past years. The results will help you decide how hot, cold, wet, or windy it might be!

Date:

Astronomy

Oct. 26, 2013 Rise Set
Actual Time 7:12 AM EDT 5:46 PM EDT
Civil Twilight 6:43 AM EDT 6:15 PM EDT
Nautical Twilight 6:10 AM EDT 6:48 PM EDT
Astronomical Twilight 5:37 AM EDT 7:21 PM EDT
Moon 11:59 PM EDT (10/26) 1:28 PM EDT (10/26)
Length of Visible Light 11h 31m
Length of Day
10h 33m
Waning Gibbous, 53% of the Moon is Illuminated
Oct 26
Waning Gibbous
Oct 26
Last Quarter
Nov 3
New
Nov 10
First Quarter
Nov 17
Full

Hourly Weather History & Observations

Time (EDT) Temp. Windchill Dew Point Humidity Pressure Visibility Wind Dir Wind Speed Gust Speed Precip Events Conditions
12:51 AM 36.9 °F 33.1 °F 26.1 °F 65% 30.91 in 10.0 mi WSW 4.6 mph - N/A   Clear
1:51 AM 32.9 °F - 26.1 °F 76% 30.90 in 10.0 mi Calm Calm - N/A   Clear
2:51 AM 32.0 °F - 26.1 °F 79% 30.90 in 10.0 mi Calm Calm - N/A   Clear
3:51 AM 29.1 °F - 25.2 °F 85% 30.89 in 10.0 mi Calm Calm - N/A   Partly Cloudy
4:51 AM 29.1 °F - 27.1 °F 92% 30.89 in 10.0 mi Calm Calm - N/A   Clear
5:51 AM 28.0 °F - 25.2 °F 89% 30.89 in 10.0 mi Calm Calm - N/A   Clear
6:51 AM 28.0 °F - 26.1 °F 92% 30.89 in 10.0 mi Calm Calm - N/A   Clear
7:51 AM 28.0 °F - 26.1 °F 92% 30.89 in 10.0 mi Calm Calm - N/A   Clear
8:51 AM 36.9 °F - 31.1 °F 80% 30.89 in 10.0 mi Calm Calm - N/A   Clear
9:51 AM 45.9 °F 42.9 °F 32.0 °F 58% 30.86 in 10.0 mi Variable 5.8 mph - N/A   Clear
10:51 AM 46.9 °F - 32.0 °F 56% 30.84 in 10.0 mi Calm Calm - N/A   Clear
11:51 AM 48.9 °F - 24.1 °F 38% 30.81 in 10.0 mi SW 9.2 mph 16.1 mph N/A   Scattered Clouds
12:51 PM 52.9 °F - 24.1 °F 33% 30.76 in 10.0 mi WSW 9.2 mph - N/A   Clear
1:51 PM 52.0 °F - 24.1 °F 34% 30.74 in 10.0 mi Variable 4.6 mph - N/A   Scattered Clouds
2:51 PM 52.9 °F - 24.1 °F 33% 30.71 in 10.0 mi Variable 6.9 mph - N/A   Scattered Clouds
3:51 PM 54.0 °F - 24.1 °F 31% 30.68 in 10.0 mi West 8.1 mph 19.6 mph N/A   Scattered Clouds
4:51 PM 52.9 °F - 23.0 °F 31% 30.65 in 10.0 mi West 8.1 mph 16.1 mph N/A   Partly Cloudy
5:51 PM 50.9 °F - 24.1 °F 35% 30.65 in 10.0 mi WSW 5.8 mph 13.8 mph N/A   Scattered Clouds
6:51 PM 50.0 °F - 26.1 °F 39% 30.66 in 10.0 mi WSW 4.6 mph 18.4 mph N/A   Clear
7:51 PM 48.9 °F - 27.1 °F 43% 30.66 in 10.0 mi SSW 3.5 mph 11.5 mph N/A   Partly Cloudy
8:51 PM 48.9 °F - 30.0 °F 48% 30.65 in 10.0 mi Calm Calm - N/A   Overcast
9:51 PM 47.8 °F - 31.1 °F 52% 30.64 in 10.0 mi Calm Calm - N/A   Overcast
10:51 PM 47.8 °F - 31.1 °F 52% 30.63 in 10.0 mi Calm Calm - N/A   Mostly Cloudy
11:51 PM 48.9 °F - 30.0 °F 48% 30.61 in 10.0 mi Variable 3.5 mph - N/A   Clear